Weather History for Imperial, CA

Change the Weather History Date:

Thursday, August 22, 2013

  Actual Average Record
Temperature  
Mean Temperature 96 °F -  
Max Temperature 109 °F 104 °F 115 °F (1969)
Min Temperature 84 °F 77 °F 65 °F (1968)
Cooling Degree Days 31    
Growing Degree Days 46 (Base 50)    
Moisture  
Dew Point 67 °F    
Average Humidity 44    
Maximum Humidity 70    
Minimum Humidity 22    
Precipitation  
Precipitation 0.04 in - - ()
Sea Level Pressure  
Sea Level Pressure 29.75 in    
Wind  
Wind Speed 10 mph (SE)    
Max Wind Speed 34 mph    
Max Gust Speed 44 mph    
Visibility 8 miles    
Events Rain , Thunderstorm    
Averages and records for this station are not official NWS values.
T = Trace of Precipitation, MM = Missing Value Source: NWS Daily Summary

Daily Weather History Graph

Daily Weather History Graph

Search for Another Location

Airport:

Trip Planner

Search our weather history database for the weather conditions in past years. The results will help you decide how hot, cold, wet, or windy it might be!

Date:

Astronomy

Aug. 22, 2013 Rise Set
Actual Time 6:10 AM PDT 7:19 PM PDT
Civil Twilight 5:44 AM PDT 7:44 PM PDT
Nautical Twilight 5:14 AM PDT 8:14 PM PDT
Astronomical Twilight 4:42 AM PDT 8:46 PM PDT
Moon 8:16 PM PDT (8/22) 7:54 AM PDT (8/22)
Length of Visible Light 13h 59m
Length of Day
13h 08m
Waning Gibbous, 96% of the Moon is Illuminated
Aug 22
Waning Gibbous
Aug 28
Last Quarter
Sep 5
New
Sep 12
First Quarter
Sep 19
Full

Hourly Weather History & Observations

Time (PDT) Temp. Heat Index Dew Point Humidity Pressure Visibility Wind Dir Wind Speed Gust Speed Precip Events Conditions
12:53 AM 90.0 °F 91.3 °F 64.0 °F 42% 29.77 in 10.0 mi SE 6.9 mph - N/A   Clear
1:53 AM 88.0 °F 94.7 °F 72.0 °F 59% 29.76 in 10.0 mi SE 8.1 mph - N/A   Clear
2:53 AM 88.0 °F 96.5 °F 73.9 °F 63% 29.76 in 10.0 mi SE 5.8 mph - N/A   Clear
3:53 AM 87.1 °F 97.3 °F 75.9 °F 69% 29.76 in 10.0 mi ESE 5.8 mph - N/A   Clear
4:53 AM 86.0 °F 93.8 °F 73.9 °F 67% 29.77 in 10.0 mi SE 10.4 mph - N/A   Clear
5:53 AM 84.9 °F 91.4 °F 73.0 °F 67% 29.78 in 10.0 mi SE 8.1 mph - N/A   Clear
6:53 AM 84.9 °F 92.1 °F 73.9 °F 69% 29.78 in 10.0 mi SE 8.1 mph - N/A   Clear
7:53 AM 86.0 °F 95.1 °F 75.0 °F 70% 29.80 in 10.0 mi SE 5.8 mph - N/A   Clear
8:53 AM 90.0 °F 102.5 °F 77.0 °F 65% 29.81 in 10.0 mi SSE 6.9 mph - N/A   Clear
9:53 AM 93.9 °F 103.4 °F 73.0 °F 51% 29.82 in 10.0 mi Calm Calm - N/A   Clear
10:53 AM 98.1 °F 107.2 °F 72.0 °F 43% 29.81 in 10.0 mi ESE 5.8 mph - N/A   Clear
11:53 AM 102.0 °F 108.1 °F 68.0 °F 33% 29.80 in 10.0 mi SW 5.8 mph - N/A   Clear
12:53 PM 105.1 °F 109.3 °F 64.9 °F 27% 29.78 in 10.0 mi SSE 9.2 mph - N/A   Clear
1:53 PM 106.0 °F 107.1 °F 60.1 °F 22% 29.75 in 10.0 mi Calm Calm - N/A   Clear
2:53 PM 106.0 °F 110.1 °F 64.0 °F 26% 29.71 in 10.0 mi SSE 9.2 mph 16.1 mph N/A   Clear
3:53 PM 108.0 °F 111.2 °F 63.0 °F 23% 29.67 in 10.0 mi ESE 10.4 mph - N/A   Clear
4:53 PM 108.0 °F 110.3 °F 62.1 °F 22% 29.67 in 10.0 mi ESE 16.1 mph 20.7 mph N/A   Partly Cloudy
5:53 PM 105.1 °F 110.1 °F 66.0 °F 28% 29.66 in 10.0 mi SE 18.4 mph - N/A   Partly Cloudy
6:53 PM 99.0 °F 102.9 °F 66.0 °F 34% 29.71 in 0.5 mi East 34.5 mph 43.7 mph N/A   Haze
6:59 PM 95.0 °F 97.0 °F 64.4 °F 36% 29.71 in 0.2 mi ESE 32.2 mph 43.7 mph N/A   Haze
7:07 PM 95.0 °F 97.0 °F 64.4 °F 36% 29.72 in 1.0 mi ESE 26.5 mph 42.6 mph N/A   Haze
7:18 PM 93.2 °F 94.9 °F 64.4 °F 38% 29.71 in 1.8 mi ESE 26.5 mph 34.5 mph N/A   Haze
7:27 PM 93.2 °F 94.9 °F 64.4 °F 38% 29.71 in 2.5 mi ESE 18.4 mph 35.7 mph N/A   Haze
7:36 PM 91.4 °F 92.1 °F 62.6 °F 38% 29.70 in 2.5 mi ESE 25.3 mph 34.5 mph N/A   Haze
7:53 PM 91.9 °F 91.8 °F 61.0 °F 35% 29.71 in 3.0 mi ESE 18.4 mph 25.3 mph N/A   Haze
8:13 PM 93.2 °F 91.9 °F 57.2 °F 30% 29.72 in 2.5 mi SE 15.0 mph - N/A   Haze
8:33 PM 93.2 °F 91.9 °F 57.2 °F 30% 29.74 in 4.0 mi South 13.8 mph - N/A   Haze
8:53 PM 93.0 °F 94.2 °F 63.0 °F 37% 29.75 in 4.0 mi South 15.0 mph - N/A   Haze
9:42 PM 93.2 °F 94.9 °F 64.4 °F 38% 29.76 in 8.0 mi SSW 15.0 mph 23.0 mph 0.00 in Rain , Thunderstorm Light Rain
9:53 PM 91.0 °F 95.2 °F 68.0 °F 47% 29.79 in 8.0 mi South 15.0 mph - 0.01 in Rain , Thunderstorm Light Thunderstorms and Rain
10:29 PM 86.0 °F 88.2 °F 66.2 °F 51% 29.75 in 10.0 mi South 11.5 mph - 0.03 in Rain Light Rain
10:53 PM 87.1 °F 89.9 °F 66.9 °F 51% 29.75 in 10.0 mi SSW 3.5 mph - 0.03 in Rain Light Rain
11:53 PM 86.0 °F 89.4 °F 68.0 °F 55% 29.74 in 10.0 mi SSE 3.5 mph - 0.00 in   Clear